Regional Weather Roundup
Issued by NWS Charleston, SC

Current Version | Previous Version | Graphics & Text | Print | Product List | Glossary On
Versions: 1 2 3 4 5 6 7 8 9 10 11 12 13 14 15 16 17 18 19 20 21 22 23 24 25 26 27 28 29 30 31 32 33 34 35 36 37 38 39 40 41 42 43 44 45 46 47 48 49 50
000
ASUS42 KCHS 022110
RWRCHS
REGIONAL WEATHER ROUNDUP
NATIONAL WEATHER SERVICE CHARLESTON SC
500 PM EDT TUE SEP 02 2014

NOTE: "FAIR" INDICATES FEW OR NO CLOUDS BELOW 12,000 FEET WITH NO
SIGNIFICANT WEATHER AND/OR OBSTRUCTIONS TO VISIBILITY.

NOT ALL STATIONS ARE QUALITY CONTROLLED BY THE NATIONAL
WEATHER SERVICE. USE DATA WITH CAUTION...ESPECIALLY
DEWPOINT OBSERVATIONS.

SCZ027-030-031-034>040-042>050-022200-
...SOUTH CAROLINA...

CITY           SKY/WX    TMP DP  RH WIND       PRES   REMARKS
N CHARLESTON   PTSUNNY   88  74  63 S9        30.04R HX  96
WATERFRONT PRK   N/A     84 N/A N/A S14         N/A
FORT JOHNSON   NOT AVBL
MOUNT PLEASANT FAIR      88  79  74 S13       30.03S HX 102
JOHNS ISLAND   PTCLDY    84  79  84 S12       30.04R HX  96
PINOPOLIS        N/A     91  72  52 S3G10     29.92S HX  98
MONCKS CORNER    N/A     88  75  66 S7        30.03R HX  97
SUMMERVILLE    TSTM      84  73  70 SW3       30.05R HX  91
BEAUFORT MCAS  CLOUDY    83  73  72 W10       30.04F THUNDER
BEAUFORT ARPT  FAIR      82  77  83 SW6       30.04S HX  91
HILTON HEAD IS PTSUNNY   84  75  74 SW8       30.06S HX  92
GEORGETOWN     NOT AVBL
WALTERBORO     CLOUDY    77 N/A N/A CALM      30.06R
ORANGEBURG     TSTM      74  70  87 SE10      30.05R FOG
BARNWELL       FAIR      79  72  78 S7        30.04R
AIKEN          FAIR      95  70  43 SE7       30.02F HX 101
MANNING        FAIR      90  75  62 S10G16    30.03R THUNDER HX 100
KINGSTREE      NOT AVBL
COLUMBIA       MOSUNNY   99  61  28 SW8       29.96F HX  99
SUMTER         MOSUNNY   92  74  54 S13       29.98R HX 101
FLORENCE       CLOUDY    88  71  57 S10       29.98F HX  94
MYRTLE BEACH   MOSUNNY   88  75  66 S17       30.00F HX  97
N MYRTLE BEACH MOSUNNY   86  76  71 S15       30.00F HX  96

$$

GAZ063-065-086>088-099>101-113>116-118-119-134-136>141-150-022200-
...GEORGIA...

CITY           SKY/WX    TMP DP  RH WIND       PRES   REMARKS
SAVANNAH ARPT  TSTM      75  71  87 E5        30.06S FOG
HUNTER AAF     TSTM      74  73  96 VRB5      30.03F FOG
FORT STEWART   CLOUDY    73  72  94 NE7       30.02F
STATESBORO     NOT AVBL
SYLVANIA       CLOUDY    77  74  92 CALM      30.05F
CLAXTON        FAIR      77  72  83 SE5       30.04F
THOMSON        SUNNY     96  76  53 CALM      30.03F HX 109
AUGUSTA-BUSH   PTSUNNY   86  71  60 S16G22    29.98S HX  91
AUGUSTA-DANIEL MOSUNNY   95  70  44 S10       29.99F HX 101
SWAINSBORO     TSTM      77  75  94 E6        30.07R
VIDALIA        PTSUNNY   88  72  58 SE9G21    30.02R HX  94
ALMA           CLOUDY    77  70  79 E5        30.02S THUNDER
WAYCROSS       DRIZZLE   80  76  87 SE12G18   30.03S
JESUP          LGT RAIN  77  72  83 CALM      30.03F
BRUNSWICK      CLOUDY    75  72  88 CALM      30.05F
SAINT SIMONS   LGT RAIN  77  75  93 NW3       30.05S

$$

SCZ027-028-034-036>038-045-046-048>050-GAZ119-141-022200-
...LAKE AND SUPPLEMENTAL COASTAL OBSERVATIONS...

STATION/POSITION TIME  TEMP    WIND        PRES    WAVE   SWELL
                       AIR SEA DIR/SP/G            HT/PER HT/PER/DIR
                 (UTC) (F)     (DEG/KT/KT) (MB)    (FT/S) (FT/S/D)
UPR LAKE MARION  NOT AVBL
WINYAH BAY       2000   85     150/ 10     1017.0S
LAKE MURRAY      2000   96     160/  2/  3 1014.2F
ACE BASIN NERRS  2000   85     160/  2     1017.0S
FORT PULASKI     2100   84     210/  6/  9 1017.8R
SAPELO ISLAND    2000   80     280/  8     1018.0S

$$

ANZ835-935-AMZ111-154-330-350-352-354-374-450-454-472-022200-
...C-MAN AND BUOY OBSERVATIONS...

STATION/POSITION TIME  TEMP    WIND        PRES    WAVE   SWELL
                       AIR SEA DIR/SP/G            HT/PER HT/PER/DIR
                 (UTC) (F)     (DEG/KT/KT) (MB)    (FT/S) (FT/S/D)
FOLLY BEACH CMAN 2000   84     170/ 14/ 15 1017.5F
BUOY 41004       2100   83 84  180/ 10/ 10 1016.6R   3/ 9   2/ 9
BUOY 41008       2100   83 85  180/  8/ 10 1016.7F   2/ 9   2/100/ 9
5E ST. MARYS GA  2100      85                N/A     2/13   2/ 80/13
FRYING PAN BUOY  NOT AVBL
BUOY 41025       2100   82     210/ 16/ 17 1015.9F   3/ 4   2/ 90/ 9
CAPE LOOKOUT NC  2000   84     220/ 13/ 17 1016.5F
BUOY 41002       2040   82 84  200/ 12/ 14 1018.8F   3/11   3/ 80/11
BUOY 41010       2100   82 85  120/  6/  8 1017.6F   3/11   3/ 30/11
BUOY 41012       NOT AVBL
ST AUGUSTINE FL  2100   83     130/ 12/ 13 1017.3F
CAPERS NEARSHORE 2000   84     180/ 14/ 17   N/A
FRIPP NEARSHORE  NOT AVBL


$$



USA.gov is the U.S. government's official web portal to all federal, state and local government web resources and services.